sat.trackr.live / text

‹ back to catalog

STARLINK-2440

NORAD 48105 · 2021-027P

PAYLOAD ACTIVE UNKNOWN

§ Identity

Operator
Country
US
Launch date
2021-04-07
Launch site
AFETR
Launch vehicle
Mass (kg)
RCS (m²)

Purposes: comms

External: N2YO · Heavens-Above · Gunter

§ Orbital elements

Epoch: 2026-05-25T03:22:23.348064Z

Period
94.01 min
Inclination
53.1608°
Eccentricity
0.0001673
Mean motion
15.31680998 rev/d
Perigee alt
469.7 km
Apogee alt
471.9 km
Semi-major
6,848.9 km
B*
-7.3600e-5
RAAN
105.6721°
Arg perigee
91.7467°
Mean anomaly
268.3726°
Rev number
28,511

§ Raw data

STARLINK-24401 48105U 21027P   26145.14054801 -.00002647  00000+0 -73600-4 0  99912 48105  53.1608 105.6721 0001673  91.7467 268.3726 15.31680998285117

JSON: /api/v1/satellites/48105 · /tle

For live sub-satellite position, see the globe view (requires WebGL).

§ Visibility from observer

Set your observer location to see the next 7 days of passes ≥ 10°. The values pass through the URL so the page stays shareable.

No JS? Fill the form by hand. The geolocation button needs JavaScript.